When you browse on this site, cookies collect data to enhance your experience and personalize the content and advertising you see.
Visit our Privacy Policy to learn more. By continuing to use the site, you agree to this use of cookies and data.

Stündliche Wetter San Cristóbal

Heute, 7 Juli, Dienstag

Zeit Temperatur Niederschläge Wind Luftdruck Luftfeuchtigkeit
00:00 +20°C° 0 mm 1 m/S 672 mmHg 84%
01:00 +18°C° 0 mm 0 m/S 672 mmHg 84%
02:00 +20°C° 0 mm 1 m/S 671 mmHg 83%
03:00 +20°C° 0 mm 1 m/S 671 mmHg 83%
04:00 +20°C° 0 mm 1 m/S 671 mmHg 83%
05:00 +20°C° 0.3 mm 1 m/S 671 mmHg 86%
06:00 +20°C° 0.3 mm 1 m/S 672 mmHg 89%
07:00 +20°C° 0.3 mm 1 m/S 672 mmHg 93%
08:00 +21°C° 0.3 mm 1 m/S 672 mmHg 91%
09:00 +21°C° 0.3 mm 1 m/S 673 mmHg 90%
10:00 +22°C° 0.3 mm 1 m/S 673 mmHg 89%
11:00 +23°C° 0.3 mm 1 m/S 673 mmHg 86%
12:00 +23°C° 0.3 mm 1 m/S 673 mmHg 84%
13:00 +24°C° 0.3 mm 1 m/S 672 mmHg 81%
14:00 +24°C° 0.1 mm 1 m/S 672 mmHg 80%
15:00 +24°C° 0.1 mm 1 m/S 671 mmHg 79%
16:00 +24°C° 0.1 mm 1 m/S 670 mmHg 78%
17:00 +23°C° 0 mm 1 m/S 670 mmHg 83%
18:00 +21°C° 0 mm 1 m/S 670 mmHg 88%
19:00 +20°C° 0 mm 1 m/S 671 mmHg 93%
20:00 +20°C° 0 mm 1 m/S 671 mmHg 92%
21:00 +20°C° 0 mm 1 m/S 671 mmHg 90%
22:00 +20°C° 0 mm 1 m/S 672 mmHg 88%
23:00 +20°C° 0 mm 1 m/S 671 mmHg 87%

Morgen, 8 Juli, Mittwoch

Zeit Temperatur Niederschläge Wind Luftdruck Luftfeuchtigkeit
00:00 +20°C° 0 mm 1 m/S 671 mmHg 85%
01:00 +20°C° 0 mm 1 m/S 671 mmHg 83%
02:00 +19°C° 0 mm 1 m/S 671 mmHg 83%
03:00 +19°C° 0 mm 1 m/S 670 mmHg 84%
04:00 +19°C° 0 mm 1 m/S 670 mmHg 84%
05:00 +20°C° 0 mm 1 m/S 671 mmHg 82%
06:00 +21°C° 0 mm 1 m/S 671 mmHg 80%
07:00 +20°C° 0 mm 2 m/S 672 mmHg 77%
08:00 +23°C° 0 mm 2 m/S 672 mmHg 71%
09:00 +25°C° 0 mm 2 m/S 673 mmHg 64%
10:00 +27°C° 0 mm 2 m/S 673 mmHg 58%
11:00 +28°C° 0.2 mm 2 m/S 673 mmHg 56%
12:00 +29°C° 0.2 mm 2 m/S 672 mmHg 54%
13:00 +30°C° 0.2 mm 3 m/S 672 mmHg 52%
14:00 +29°C° 0.3 mm 2 m/S 671 mmHg 55%
15:00 +28°C° 0.3 mm 2 m/S 671 mmHg 58%
16:00 +28°C° 0.3 mm 2 m/S 670 mmHg 61%
17:00 +26°C° 0.4 mm 2 m/S 670 mmHg 70%
18:00 +24°C° 0.4 mm 1 m/S 670 mmHg 80%
19:00 +22°C° 0.4 mm 1 m/S 670 mmHg 90%
20:00 +21°C° 0.2 mm 1 m/S 671 mmHg 91%
21:00 +21°C° 0.2 mm 1 m/S 671 mmHg 92%
22:00 +20°C° 0.2 mm 1 m/S 671 mmHg 93%
23:00 +20°C° 0.1 mm 1 m/S 671 mmHg 92%

übermorgen, 9 Juli, Donnerstag

Zeit Temperatur Niederschläge Wind Luftdruck Luftfeuchtigkeit
00:00 +20°C° 0.1 mm 1 m/S 671 mmHg 91%
01:00 +20°C° 0.1 mm 1 m/S 671 mmHg 91%
02:00 +20°C° 0.1 mm 1 m/S 671 mmHg 90%
03:00 +20°C° 0.1 mm 1 m/S 671 mmHg 89%
04:00 +20°C° 0.1 mm 1 m/S 670 mmHg 88%
05:00 +20°C° 0 mm 1 m/S 671 mmHg 85%
06:00 +21°C° 0 mm 1 m/S 672 mmHg 82%
07:00 +22°C° 0 mm 1 m/S 672 mmHg 79%
08:00 +23°C° 0.2 mm 2 m/S 673 mmHg 73%
09:00 +25°C° 0.2 mm 2 m/S 673 mmHg 67%
10:00 +27°C° 0.2 mm 3 m/S 673 mmHg 61%
11:00 +27°C° 0.2 mm 3 m/S 673 mmHg 58%
12:00 +28°C° 0.2 mm 3 m/S 673 mmHg 54%
13:00 +29°C° 0.2 mm 3 m/S 672 mmHg 51%
14:00 +29°C° 0.2 mm 3 m/S 672 mmHg 53%
15:00 +28°C° 0.2 mm 2 m/S 671 mmHg 56%
16:00 +28°C° 0.2 mm 2 m/S 671 mmHg 58%
17:00 +26°C° 0.2 mm 2 m/S 671 mmHg 69%
18:00 +24°C° 0.2 mm 1 m/S 671 mmHg 79%
19:00 +21°C° 0.2 mm 1 m/S 671 mmHg 89%
20:00 +21°C° 0 mm 1 m/S 671 mmHg 88%
21:00 +21°C° 0 mm 1 m/S 671 mmHg 87%
22:00 +20°C° 0 mm 1 m/S 672 mmHg 86%
23:00 +20°C° 0 mm 1 m/S 671 mmHg 85%

10 Juli, Freitag

Zeit Temperatur Niederschläge Wind Luftdruck Luftfeuchtigkeit
00:00 +20°C° 0 mm 1 m/S 671 mmHg 84%
01:00 +20°C° 0 mm 1 m/S 671 mmHg 83%
02:00 +19°C° 0 mm 1 m/S 671 mmHg 83%
03:00 +18°C° 0 mm 2 m/S 671 mmHg 83%
04:00 +18°C° 0 mm 2 m/S 671 mmHg 83%
05:00 +19°C° 0 mm 2 m/S 672 mmHg 80%
06:00 +20°C° 0 mm 2 m/S 672 mmHg 76%
07:00 +21°C° 0 mm 2 m/S 673 mmHg 73%
08:00 +23°C° 0 mm 2 m/S 673 mmHg 66%
09:00 +25°C° 0 mm 2 m/S 673 mmHg 59%
10:00 +27°C° 0 mm 2 m/S 674 mmHg 52%
11:00 +28°C° 0.1 mm 2 m/S 673 mmHg 52%
12:00 +28°C° 0.1 mm 3 m/S 673 mmHg 52%
13:00 +29°C° 0.1 mm 3 m/S 673 mmHg 52%
14:00 +28°C° 0.3 mm 2 m/S 672 mmHg 57%
15:00 +27°C° 0.3 mm 2 m/S 671 mmHg 62%
16:00 +26°C° 0.3 mm 2 m/S 671 mmHg 67%
17:00 +24°C° 0.1 mm 1 m/S 671 mmHg 75%
18:00 +23°C° 0.1 mm 1 m/S 671 mmHg 84%
19:00 +21°C° 0.1 mm 1 m/S 671 mmHg 92%
20:00 +20°C° 0 mm 1 m/S 671 mmHg 89%
21:00 +20°C° 0 mm 1 m/S 672 mmHg 87%
22:00 +20°C° 0 mm 1 m/S 672 mmHg 85%
23:00 +20°C° 0 mm 1 m/S 672 mmHg 84%

11 Juli, Samstag

Zeit Temperatur Niederschläge Wind Luftdruck Luftfeuchtigkeit
00:00 +20°C° 0 mm 1 m/S 671 mmHg 83%
01:00 +19°C° 0 mm 1 m/S 671 mmHg 82%
02:00 +20°C° 0 mm 1 m/S 671 mmHg 83%
03:00 +20°C° 0 mm 1 m/S 671 mmHg 83%
04:00 +20°C° 0 mm 1 m/S 671 mmHg 84%
05:00 +20°C° 0 mm 1 m/S 671 mmHg 82%
06:00 +21°C° 0 mm 1 m/S 672 mmHg 80%
07:00 +22°C° 0 mm 1 m/S 672 mmHg 79%
08:00 +23°C° 0.2 mm 1 m/S 673 mmHg 75%
09:00 +25°C° 0.2 mm 2 m/S 673 mmHg 72%
10:00 +26°C° 0.2 mm 2 m/S 674 mmHg 68%
11:00 +26°C° 0.4 mm 2 m/S 673 mmHg 69%
12:00 +26°C° 0.4 mm 2 m/S 672 mmHg 71%
13:00 +26°C° 0.4 mm 2 m/S 672 mmHg 72%
14:00 +26°C° 0.4 mm 2 m/S 671 mmHg 73%
15:00 +26°C° 0.4 mm 2 m/S 671 mmHg 75%
16:00 +25°C° 0.4 mm 1 m/S 670 mmHg 76%
17:00 +24°C° 0.2 mm 1 m/S 670 mmHg 81%
18:00 +22°C° 0.2 mm 1 m/S 670 mmHg 87%
19:00 +21°C° 0.2 mm 1 m/S 670 mmHg 92%
20:00 +21°C° 0.1 mm 1 m/S 670 mmHg 92%
21:00 +20°C° 0.1 mm 1 m/S 671 mmHg 92%
22:00 +20°C° 0.1 mm 1 m/S 671 mmHg 92%
23:00 +20°C° 0 mm 1 m/S 671 mmHg 90%

12 Juli, Sonntag

Zeit Temperatur Niederschläge Wind Luftdruck Luftfeuchtigkeit
00:00 +20°C° 0 mm 1 m/S 671 mmHg 89%
01:00 +20°C° 0 mm 1 m/S 670 mmHg 87%
02:00 +20°C° 0 mm 1 m/S 670 mmHg 87%
03:00 +20°C° 0 mm 1 m/S 670 mmHg 88%
04:00 +19°C° 0 mm 1 m/S 670 mmHg 88%
05:00 +20°C° 0 mm 1 m/S 671 mmHg 84%
06:00 +21°C° 0 mm 1 m/S 671 mmHg 81%
07:00 +22°C° 0 mm 1 m/S 672 mmHg 77%
08:00 +24°C° 0.1 mm 1 m/S 672 mmHg 71%
09:00 +26°C° 0.1 mm 1 m/S 673 mmHg 66%
10:00 +27°C° 0.1 mm 2 m/S 673 mmHg 60%
11:00 +27°C° 0.5 mm 2 m/S 673 mmHg 63%
12:00 +27°C° 0.5 mm 2 m/S 672 mmHg 66%
13:00 +27°C° 0.5 mm 2 m/S 672 mmHg 68%
14:00 +26°C° 0.9 mm 2 m/S 671 mmHg 74%
15:00 +25°C° 0.9 mm 2 m/S 670 mmHg 79%
16:00 +24°C° 0.9 mm 2 m/S 670 mmHg 85%
17:00 +23°C° 0.6 mm 1 m/S 670 mmHg 88%
18:00 +22°C° 0.6 mm 1 m/S 670 mmHg 92%
19:00 +21°C° 0.6 mm 1 m/S 670 mmHg 95%
20:00 +21°C° 0.5 mm 1 m/S 671 mmHg 95%
21:00 +21°C° 0.5 mm 1 m/S 672 mmHg 96%
22:00 +21°C° 0.5 mm 1 m/S 672 mmHg 96%
23:00 +20°C° 0.2 mm 1 m/S 672 mmHg 96%
Mehr zeigen